Torna al catalogo

SL-14 R/B

AttivoPO
NORAD 18749·ROCKET BODY·🇷🇺 Russia

Lanciato Jan 6, 1988 da Plesetsk Cosmodrome

Loading…

Prossimi Passaggi (prossime 24 ore)

TLE

AggiornatoSource: Space-Track

Epoca: Sep 14, 2026, 14:27 UTC

1 18749U 88001B   26257.60245847  .00000318  00000-0  33886-4 0  9998
2 18749  82.5157  17.6310 0017374 338.1807  21.8667 14.85659666 70079

Traccia SL-14 R/B in tempo reale con AllMySat

Download on the App Store